sim
Sign-in with your pilot id or email,
or register
Callsign
Passwort

Schedule Details

Flight Number: RYR3094 (2)
Departure: Paris Beauvais-Tille Airport (LFOB) at 10:55
Arrival: Thessaloniki International Airport (LGTS) at 13:45
Route: Ryanair Passenger Schedule. Enter filed route here before submitting Pirep.

Weather Information
Getting current METAR information for LFOB 172230Z AUTO 20004KT CAVOK 16/15 Q1008 TEMPO 2000 RADZ OVC005
Getting current METAR information for LGTS 172220Z VRB03KT 9999 FEW025 21/16 Q1015 NOSIG

Schedule Frequency

Route Map